Date,TemperatureHighF,TemperatureAvgF,TemperatureLowF,DewpointHighF,DewpointAvgF,DewpointLowF,HumidityHigh,HumidityAvg,HumidityLow,PressureMaxIn,PressureMinIn,WindSpeedMaxMPH,WindSpeedAvgMPH,GustSpeedMaxMPH,PrecipitationSumIn
2013-12-1,77.1,73.8,71.6,72.2,70.6,68.8,93,90,85,30.05,29.97,21,12,21,0.01
2013-12-2,77.4,77.4,77.4,73.2,73.2,73.2,87,87,87,29.87,29.87,0,0,0,0.05
2013-12-3,82.0,81.3,80.4,76.6,75.4,74.2,85,82,80,29.89,29.80,29,21,29,0.05
2013-12-4,85.1,82.2,81.3,79.7,77.2,76.2,87,85,82,29.92,29.82,28,19,28,0.00
2013-12-5,82.8,82.2,81.7,77.3,76.1,74.7,85,82,78,29.99,29.89,28,21,28,0.00
2013-12-6,83.0,82.2,81.4,77.9,76.6,74.9,86,83,80,30.03,29.88,27,20,27,0.00
2013-12-7,82.3,81.3,76.5,77.7,76.0,73.0,91,84,80,30.07,29.97,32,14,32,0.09
2013-12-8,82.4,78.4,76.1,76.1,74.3,72.3,93,87,75,30.05,29.95,20,5,20,0.24
2013-12-9,84.2,81.0,78.3,77.0,74.5,73.0,87,81,76,30.04,29.93,20,6,20,0.02
2013-12-10,83.2,79.7,77.4,76.6,73.8,71.7,89,82,74,30.08,29.97,23,7,23,0.12
2013-12-11,79.8,76.1,74.0,77.0,74.0,71.2,95,93,86,30.07,29.95,21,9,21,2.06
2013-12-12,79.3,76.4,74.8,75.7,73.8,72.3,95,92,85,30.13,29.99,30,9,30,1.84
2013-12-13,81.2,76.4,74.4,76.3,74.1,72.8,96,93,83,30.03,29.90,24,8,24,1.60
2013-12-14,82.5,78.8,74.0,77.3,74.8,71.9,95,88,79,29.97,29.86,22,8,22,0.16
2013-12-15,82.2,80.5,76.1,77.6,76.0,72.3,91,86,79,30.03,29.90,22,11,24,0.43
2013-12-16,76.2,74.6,71.5,74.1,72.7,69.9,96,94,90,30.10,29.97,22,11,22,2.70
2013-12-17,79.9,74.9,71.6,75.3,72.4,69.8,95,92,84,30.13,30.01,17,10,17,0.04
2013-12-18,80.5,75.8,73.0,75.3,72.9,70.9,95,91,83,30.13,30.01,21,10,21,2.50
2013-12-19,80.5,76.6,72.5,76.3,73.6,70.4,96,91,81,30.06,29.94,23,8,23,0.76
2013-12-20,81.6,80.0,75.1,76.6,75.0,72.5,94,85,80,30.00,29.89,41,18,41,0.31
2013-12-21,82.4,81.4,79.9,77.5,75.8,74.1,88,83,78,29.96,29.86,35,22,35,0.00
2013-12-22,82.4,81.8,81.4,77.1,76.1,74.9,86,83,79,29.99,29.86,32,23,32,0.00
2013-12-23,82.0,81.2,77.3,77.0,75.2,69.8,87,82,78,30.09,29.95,29,17,29,0.18
2013-12-24,83.0,81.0,77.9,76.7,74.0,70.7,85,79,76,30.13,29.99,26,14,26,0.11
2013-12-25,83.4,77.5,72.1,74.7,72.2,68.0,92,84,73,30.08,29.96,22,9,22,0.33
2013-12-26,81.8,76.8,72.0,75.3,71.8,68.2,93,85,71,30.07,29.93,32,8,32,0.95
2013-12-27,79.3,75.4,73.1,74.9,72.1,68.3,94,90,75,30.06,29.95,14,6,14,0.72
2013-12-28,80.0,75.7,72.8,74.7,72.6,70.7,94,90,83,30.05,29.92,16,6,16,0.00
2013-12-29,81.1,76.0,73.9,74.5,72.3,70.8,93,88,79,30.04,29.92,17,7,18,0.41
2013-12-30,85.3,78.9,74.3,78.8,75.1,72.6,95,88,79,30.03,29.93,29,5,29,0.27
2013-12-31,81.8,80.4,76.4,76.9,75.3,70.5,89,84,76,30.08,29.96,23,14,23,0.07